Theta_e
327 320 318 312 300 299 294 298 303 303 308 314 314 312 312 314 312 307 329 333 335 337 340 341 343 346 346 344 341 339 338 337 336 336 336 335 334 333 334 332 333 333 334 334 333 333 333 333 334
321 318 315 306 295 290 291 299 300 303 309 318 317 316 313 311 322 324 328 333 337 338 339 340 341 346 345 343 341 339 339 337 336 336 335 334 334 333 333 333 332 333 333 333 334 334 334 333 333
317 315 309 302 294 290 290 297 301 305 317 317 316 319 317 315 323 326 331 335 338 337 339 340 342 345 344 342 341 340 339 338 336 335 335 334 334 333 332 332 333 333 333 334 335 335 334 334 333
312 311 306 298 294 297 295 300 303 304 317 319 319 315 319 324 325 330 333 336 337 337 340 340 343 344 343 341 340 340 339 337 335 335 334 333 333 332 332 332 332 332 334 337 336 337 337 336 335
309 306 299 296 295 298 300 302 303 303 309 316 318 314 315 325 329 332 334 336 335 337 339 340 341 342 342 341 340 339 338 337 336 334 334 333 332 334 333 334 335 335 337 337 337 337 337 336 336
306 303 294 292 295 299 302 303 303 303 306 314 316 314 316 325 328 332 335 335 336 336 338 339 335 337 338 339 339 338 338 337 336 334 333 333 333 333 334 336 337 337 337 337 337 337 337 336 336
303 298 294 294 295 297 301 305 303 303 303 308 318 313 317 321 329 332 334 334 335 335 337 337 337 335 332 335 335 336 336 335 335 335 334 334 334 335 335 336 336 336 336 336 336 336 338 337 335
304 300 295 295 296 297 303 303 306 304 305 319 319 313 314 322 329 332 333 332 332 333 334 334 334 335 335 334 330 331 332 333 333 333 332 331 331 332 331 330 335 336 336 336 335 338 337 335 332
306 296 295 294 296 299 304 302 307 315 315 318 320 318 321 326 329 328 329 328 329 330 332 332 332 333 331 331 328 328 328 330 330 330 327 326 331 330 329 327 332 335 336 337 335 335 333 329 325
301 294 297 301 301 300 304 303 304 306 309 314 318 321 323 326 326 324 324 323 325 327 330 331 331 331 330 329 329 331 330 332 331 331 330 329 330 330 331 324 325 326 327 329 330 332 327 323 321
299 295 300 302 304 303 302 302 305 303 301 310 310 313 321 323 323 323 323 324 324 327 328 329 329 330 329 329 329 329 329 329 329 328 328 329 330 329 327 322 325 319 313 313 316 322 325 320 316
292 298 297 300 298 297 298 304 302 303 305 309 310 315 320 320 321 322 323 325 324 326 326 326 328 328 329 328 327 327 327 327 326 327 328 330 329 325 319 318 316 314 312 309 312 320 317 312 310
290 294 296 297 297 296 297 298 302 303 306 309 309 312 318 321 321 323 325 326 325 323 324 325 326 326 327 326 326 325 326 324 326 327 330 328 324 318 311 311 309 308 306 305 312 317 310 308 307
294 295 295 295 294 295 293 292 294 303 308 307 308 308 315 320 322 323 324 323 323 323 323 325 326 327 326 325 324 324 325 324 324 325 328 324 318 311 308 307 305 304 303 304 311 312 307 305 304
296 290 290 290 293 293 296 291 291 298 304 305 308 309 312 316 321 322 324 324 324 323 324 326 327 327 324 323 323 324 324 322 321 322 321 317 311 310 306 305 303 301 298 301 307 306 304 301 299
287 287 282 288 290 291 295 283 292 295 296 300 303 307 309 312 318 323 325 325 326 323 323 327 326 325 323 322 323 322 321 318 318 317 315 312 309 307 304 302 301 299 297 301 306 304 299 297 296
282 277 280 282 289 289 290 285 291 292 293 293 296 302 309 312 315 321 324 326 325 324 323 324 325 322 321 322 320 319 314 311 310 309 308 307 306 305 303 301 299 297 297 299 303 300 299 295 293
275 277 279 280 285 286 284 283 287 290 291 292 293 296 301 305 313 317 323 325 325 325 324 324 324 322 320 317 312 308 307 305 304 304 304 303 302 301 301 299 297 296 295 296 298 297 296 295 293
282 281 279 282 286 284 283 283 285 289 289 290 292 295 298 301 306 314 318 323 324 324 323 323 321 320 316 312 308 306 304 301 301 301 301 300 298 298 298 297 296 295 294 295 298 296 293 291 291
281 280 278 281 284 284 282 281 285 287 288 290 292 293 294 298 301 307 314 318 321 322 323 322 321 317 316 313 314 310 303 300 299 299 298 298 297 296 297 295 294 294 294 295 296 295 291 291 291
281 278 278 277 281 283 281 279 282 286 289 290 291 293 295 296 297 303 312 315 319 320 321 321 320 315 315 314 307 302 298 298 297 296 296 296 296 296 295 294 294 293 294 294 295 294 293 289 288
276 281 280 280 275 268 281 272 280 284 285 288 290 291 294 296 298 300 305 314 317 319 322 321 318 315 314 311 307 303 303 298 297 296 295 294 295 293 292 293 293 292 292 292 292 292 291 291 288
280 283 281 281 277 275 277 273 278 283 282 285 289 291 293 296 297 299 302 312 316 319 321 320 316 314 312 309 307 306 305 302 296 294 293 292 293 293 292 291 291 290 290 289 289 289 289 289 288
284 282 281 280 276 269 273 273 276 280 283 286 291 293 294 296 298 300 303 308 314 318 320 318 313 312 309 309 306 309 303 295 293 292 291 291 290 290 290 289 289 288 288 288 288 288 288 287 287
282 277 265 263 261 268 276 273 278 283 286 290 290 291 293 295 297 300 302 307 312 315 317 315 312 310 307 307 306 306 298 297 294 292 290 289 288 288 288 288 287 287 287 287 287 286 286 286 285
278 277 269 266 265 270 278 272 278 287 291 291 293 292 293 293 295 299 302 305 310 313 315 314 310 308 307 306 305 300 298 296 294 292 290 289 289 288 288 287 287 287 286 286 286 285 285 285 284
279 276 281 275 275 272 270 276 281 288 290 290 290 292 292 293 293 300 304 308 309 312 313 312 310 304 304 301 297 296 295 293 291 291 290 289 289 288 287 287 286 286 286 286 285 285 283 284 284
281 283 275 274 268 265 268 271 275 284 286 288 289 289 290 290 293 301 304 306 307 310 311 311 308 305 301 297 296 294 293 292 291 291 289 288 288 287 286 286 286 285 285 285 285 284 284 283 283
276 277 279 279 276 271 269 272 284 285 287 286 288 289 289 289 294 299 300 301 301 301 303 302 302 298 296 295 294 293 292 291 291 289 288 288 287 287 286 286 286 285 284 284 284 284 283 283 283
279 278 278 273 271 274 274 274 288 288 287 289 289 289 288 289 296 296 297 297 297 297 297 297 296 295 295 293 292 291 291 290 289 288 288 288 287 288 287 286 285 285 284 284 283 282 282 282 281
Wind_Speed
8 5 2 4 4 4 3 5 1 3 2 3 7 4 6 3 6 4 1 4 13 18 16 17 18 18 19 19 18 17 17 17 17 17 16 15 14 13 13 12 12 11 12 13 12 12 12 12 11
4 1 4 2 5 4 5 4 5 4 2 4 4 3 3 4 2 1 5 7 18 16 15 15 16 18 20 19 17 16 16 16 16 16 16 15 14 13 12 12 11 11 12 12 12 12 12 12 11
1 3 3 3 2 8 6 6 6 3 2 2 2 3 4 3 2 5 1 13 18 17 15 14 17 18 21 20 18 16 15 16 16 16 15 14 14 14 12 11 11 11 11 12 11 11 11 11 11
3 4 3 3 6 5 4 2 3 3 4 4 2 3 2 1 2 6 10 14 16 14 14 14 19 19 20 19 18 17 16 16 16 15 15 15 14 13 12 11 11 11 10 11 10 10 10 12 10
3 2 2 2 5 5 4 4 3 4 4 2 4 3 4 2 2 10 15 14 17 14 12 14 16 18 18 18 18 17 16 15 15 15 14 14 12 11 10 9 8 8 10 10 10 11 11 12 10
2 2 1 4 6 5 4 6 2 3 3 2 2 1 4 2 8 13 14 15 16 15 14 14 12 12 16 17 17 17 16 15 15 14 14 13 12 11 10 8 8 10 10 9 9 9 11 11 13
4 3 5 5 3 5 6 3 4 6 5 6 3 4 3 4 10 12 12 13 15 15 14 12 14 13 10 12 14 15 15 14 13 12 12 10 9 9 8 6 8 9 9 8 7 7 11 14 16
2 3 4 4 7 12 7 4 3 6 5 2 4 5 3 3 9 11 11 13 14 11 13 13 13 15 12 10 9 11 13 12 12 11 10 9 8 8 7 5 5 8 8 7 5 10 17 18 18
2 2 9 5 6 5 3 3 2 1 2 2 5 2 1 11 11 10 12 13 11 12 13 12 14 14 13 10 9 9 9 9 10 10 9 8 6 7 7 6 4 3 6 8 13 15 19 20 17
3 3 5 6 5 5 8 7 6 4 4 3 3 3 5 16 14 13 16 18 15 16 14 12 14 14 14 10 12 10 8 7 6 7 9 6 7 5 5 6 6 10 12 12 14 16 16 12 8
4 3 4 2 5 10 6 6 5 5 7 5 7 5 8 14 15 16 17 16 17 15 12 14 16 14 14 11 8 6 6 6 5 7 7 7 5 3 4 3 3 4 7 5 7 8 6 9 8
4 4 4 6 11 8 9 10 8 9 11 7 7 1 10 13 16 18 19 18 15 15 15 14 17 15 13 9 9 8 7 6 6 8 8 6 5 5 4 3 4 5 4 6 5 5 9 11 11
3 4 10 11 11 12 13 12 13 12 6 9 10 7 13 15 20 20 18 15 14 16 15 15 17 16 13 12 8 9 9 7 8 7 8 8 7 6 4 4 4 5 5 5 7 8 9 10 11
3 6 11 7 12 12 15 18 9 1 4 13 13 12 11 16 20 20 17 16 18 16 18 17 17 16 14 12 12 9 8 9 8 7 8 10 6 7 5 5 4 5 4 5 7 8 9 9 9
6 7 6 5 2 6 10 8 15 15 14 22 19 17 14 17 19 20 22 21 20 19 19 18 17 15 13 12 12 9 8 8 7 7 8 9 8 9 7 6 5 4 4 9 9 10 9 9 9
5 3 5 5 11 6 6 16 25 11 15 16 16 18 20 16 20 21 22 23 20 18 21 19 16 17 15 12 10 8 9 6 5 5 6 8 10 10 8 6 5 5 5 7 8 9 9 9 8
5 4 5 8 10 7 2 11 9 21 23 21 18 15 15 13 14 17 21 21 21 22 23 21 18 19 17 12 8 8 8 5 5 4 4 7 8 8 7 6 6 6 6 7 8 7 8 9 9
5 6 5 12 6 14 20 29 21 16 18 21 19 20 18 15 14 16 19 20 20 21 22 21 17 18 16 11 8 6 6 4 4 5 4 7 7 6 7 6 7 6 7 7 7 10 7 8 9
3 8 16 19 14 15 17 26 21 18 17 20 22 19 17 19 15 12 14 18 20 21 21 22 21 20 15 12 10 6 7 5 5 4 7 7 8 8 8 6 7 6 6 7 9 10 12 7 8
6 12 15 8 10 8 15 32 24 20 23 24 24 24 23 20 18 15 13 14 17 19 22 22 22 20 17 13 11 6 7 4 4 5 6 7 8 8 8 8 7 7 7 10 9 9 6 4 2
5 9 10 16 8 11 18 25 17 17 16 20 23 26 26 22 21 19 15 19 18 20 21 22 21 21 19 16 10 9 8 7 5 6 5 4 6 7 8 7 7 8 7 8 8 8 7 5 2
4 6 9 11 8 4 3 22 17 22 19 18 22 21 23 25 21 23 21 20 22 21 21 23 22 22 20 21 15 21 13 10 6 7 7 6 5 7 8 7 7 7 5 7 5 5 4 5 5
9 2 11 15 15 9 21 5 15 22 21 23 18 17 20 21 20 22 23 23 23 22 21 20 21 22 21 22 21 16 15 9 10 9 11 8 5 6 9 8 7 7 5 4 7 6 6 3 4
6 5 13 11 3 5 9 6 12 17 10 11 12 13 14 15 18 20 22 20 22 24 22 20 22 22 21 20 18 21 21 16 13 11 9 7 6 3 7 9 6 6 7 5 6 7 8 7 6
4 5 6 8 5 10 5 6 17 22 8 5 13 16 17 18 20 19 20 18 21 23 23 20 23 23 25 23 20 19 19 20 20 17 12 12 7 4 6 7 7 6 8 7 7 7 8 8 7
6 4 3 7 7 21 9 8 9 4 4 7 14 17 16 17 20 22 21 21 23 24 24 23 24 21 22 23 21 15 17 12 13 14 13 10 8 4 9 6 6 8 8 7 7 7 7 8 7
1 3 7 8 8 9 5 9 12 3 15 18 22 21 24 25 18 20 18 18 20 20 21 23 22 21 20 18 17 17 15 18 16 18 15 11 12 6 8 7 9 7 7 9 8 5 7 7 6
5 4 5 3 7 10 6 9 9 17 14 16 26 24 25 20 16 13 14 13 12 15 16 20 21 23 20 21 18 17 17 18 18 17 17 15 13 10 7 11 6 7 6 7 8 7 6 7 5
4 4 4 3 4 7 12 13 8 7 13 20 24 24 27 20 18 10 6 8 7 8 11 13 15 20 18 20 20 21 18 20 17 17 15 15 11 12 10 10 7 7 5 5 7 6 6 7 6
6 5 2 3 8 8 12 22 2 6 19 19 21 23 22 19 11 9 9 10 9 9 11 14 16 15 17 19 21 19 20 21 17 18 17 13 13 9 11 11 9 7 7 6 6 7 6 6 6
Wind_Direction
330 333 74 31 68 57 267 249 307 304 287 176 143 160 201 195 180 212 10 171 146 153 159 160 160 165 156 144 146 146 142 140 138 132 129 126 127 126 117 119 108 108 105 104 99 94 90 88 88
322 350 44 69 118 171 239 229 230 230 283 153 152 162 192 252 155 63 150 169 154 152 158 159 163 156 146 142 146 146 145 143 139 135 134 135 124 120 122 116 121 108 103 99 100 96 92 92 93
229 35 92 117 187 211 209 192 188 259 139 173 210 268 169 214 179 171 308 159 155 155 160 162 158 153 143 144 147 149 149 146 144 142 140 134 135 134 126 128 116 115 111 104 102 103 97 96 96
23 17 55 144 237 268 253 276 176 291 182 200 161 261 285 221 176 159 152 157 156 155 156 158 154 152 150 149 150 152 151 152 150 146 143 144 139 137 134 122 124 119 116 116 111 105 101 103 108
32 62 211 229 244 248 242 250 265 299 305 179 172 226 243 217 153 137 154 157 159 150 151 153 153 151 151 153 153 156 158 156 153 151 150 144 138 134 134 143 136 126 114 118 120 119 121 120 115
63 95 164 233 237 249 270 236 220 219 249 309 253 223 240 160 158 156 157 157 162 157 152 154 147 154 156 158 158 160 159 157 156 155 150 147 147 148 148 139 129 123 125 134 132 128 129 117 101
158 132 217 207 233 284 246 198 222 244 227 225 170 203 304 216 178 156 150 152 158 166 157 155 153 154 160 161 162 161 158 156 156 153 152 148 150 148 130 121 124 129 138 140 127 135 119 102 98
123 146 204 205 215 254 253 207 227 192 249 47 156 225 263 224 180 148 145 155 164 169 163 158 158 155 160 168 159 155 153 156 154 153 152 145 136 130 130 133 146 153 152 136 91 125 116 109 99
124 251 243 214 189 229 264 228 269 286 212 235 195 253 343 142 160 153 161 171 169 183 173 167 162 159 156 158 157 147 150 152 151 151 146 143 152 154 158 156 140 199 184 129 107 99 107 104 93
172 211 241 197 206 236 254 225 244 250 241 246 281 229 130 154 163 185 184 184 187 186 176 173 170 169 162 161 159 159 155 166 166 164 162 162 167 167 148 109 93 71 85 92 106 115 111 108 110
330 241 341 328 334 354 285 287 240 233 245 206 214 226 173 178 182 193 200 201 193 186 175 180 181 175 167 162 162 163 161 160 169 174 177 178 170 154 132 126 124 103 91 98 100 114 108 107 110
336 316 19 330 330 323 309 310 290 247 251 232 249 167 184 198 201 202 206 197 192 194 182 185 188 178 177 167 167 167 168 168 167 177 188 184 174 151 149 144 133 125 123 113 110 109 108 103 100
201 335 326 319 310 301 284 267 269 266 283 279 271 213 196 202 214 216 211 200 192 192 190 188 190 186 178 176 171 167 169 174 175 174 179 171 165 151 141 138 135 131 123 122 121 117 113 108 105
312 290 290 285 279 271 269 272 264 48 243 250 248 247 217 209 207 211 206 200 194 194 191 185 189 189 181 177 177 176 174 180 173 175 175 173 155 142 145 133 121 116 112 115 120 120 117 110 107
278 295 321 287 306 276 295 282 244 254 264 256 253 257 243 218 217 211 207 206 197 191 193 188 182 183 184 180 174 172 183 184 173 173 171 161 147 147 141 136 131 121 114 118 115 111 109 107 103
338 32 349 310 338 296 9 273 299 356 339 320 297 265 259 239 222 214 208 208 204 192 192 184 180 181 179 180 177 172 177 175 179 168 160 162 142 142 139 135 133 131 127 129 127 125 113 109 107
12 295 296 317 330 294 287 298 323 321 311 301 301 298 280 263 239 226 219 210 200 192 190 189 184 178 176 166 166 169 152 156 157 153 144 144 134 138 132 130 130 131 130 128 133 117 122 118 109
281 305 279 292 271 302 289 281 284 282 278 282 282 279 277 277 263 239 219 210 204 196 190 184 184 177 170 152 138 131 126 129 134 137 138 136 127 121 123 123 129 131 129 128 121 118 106 115 118
291 279 281 266 271 283 269 275 282 279 271 268 271 266 260 265 272 246 233 210 202 199 192 184 178 174 162 159 155 155 154 145 136 133 133 130 129 131 134 134 136 136 135 133 128 117 119 107 120
263 273 271 282 261 268 285 280 289 280 266 260 259 260 258 250 252 253 213 215 202 197 191 183 183 171 172 167 166 158 141 139 130 126 119 129 130 134 136 138 136 131 128 133 141 142 131 115 181
249 254 281 277 304 252 278 282 291 275 260 254 252 250 253 251 240 235 220 204 212 200 194 185 181 175 174 164 138 117 98 107 133 133 121 116 127 124 130 132 140 138 142 150 149 145 135 139 100
267 271 274 285 334 280 81 295 298 281 276 270 263 253 249 249 239 234 222 205 203 208 197 189 178 180 173 161 159 157 164 163 160 149 134 122 123 126 113 123 134 131 132 141 143 135 132 125 140
243 342 285 282 275 311 276 253 290 289 287 277 275 271 255 246 241 233 231 207 202 204 202 189 181 179 176 171 166 166 160 157 139 132 126 117 105 124 120 117 119 117 115 122 133 132 137 122 139
283 299 287 286 261 254 262 177 276 290 283 321 332 321 310 279 253 234 230 227 217 196 197 186 180 180 167 171 173 168 159 148 138 141 133 121 103 101 107 102 104 99 102 105 105 109 114 107 103
33 355 324 348 355 259 274 315 271 292 299 306 316 324 321 306 291 243 224 214 213 208 192 184 181 183 172 162 168 168 158 152 150 148 139 132 117 119 97 98 117 107 105 102 99 100 100 106 111
295 172 200 287 291 295 285 239 260 215 258 289 317 314 305 301 295 254 221 214 210 207 200 183 180 174 173 169 163 153 146 137 137 135 133 125 116 134 107 109 100 101 103 99 103 100 100 98 106
331 217 217 257 262 275 255 281 293 321 335 339 322 315 318 313 292 249 216 208 208 205 198 183 174 163 161 146 139 135 134 129 127 125 121 119 121 140 127 116 112 111 121 115 112 103 101 108 115
217 322 324 331 307 285 280 275 266 311 311 310 323 324 314 305 301 235 209 202 191 197 181 182 169 168 157 148 138 131 132 128 130 126 126 129 133 134 150 107 117 112 125 113 112 105 116 118 119
340 286 237 259 237 291 311 294 271 273 299 320 316 308 319 310 292 243 159 142 139 145 135 134 148 142 148 138 134 130 131 124 130 123 126 131 139 140 135 120 129 116 124 116 112 129 142 148 160
198 230 214 316 301 275 279 277 318 230 319 331 318 307 313 313 318 153 143 131 126 129 127 127 132 136 139 132 122 128 129 123 131 128 132 140 131 137 126 131 144 144 143 145 148 155 164 176 170